When you browse on this site, cookies collect data to enhance your experience and personalize the content and advertising you see.
Visit our Privacy Policy to learn more. By continuing to use the site, you agree to this use of cookies and data.
  • In France
  • List of Countries
  • For 7 days
  • Water Temperature
  • Satellite Maps
  • Weather Map
  • Weather Widgets
  • user-avatar
    Login

    Hourly Weather Razgrad

    Today, 27 May, Monday

    Time Temperature Precipitation Wind Pressure Humidity
    00:00 +16°C° 0 mm 2 mps 742 mmHg 86%
    01:00 +16°C° 0 mm 2 mps 742 mmHg 87%
    02:00 +16°C° 0 mm 2 mps 742 mmHg 87%
    03:00 +16°C° 0 mm 2 mps 742 mmHg 88%
    04:00 +15°C° 0 mm 2 mps 742 mmHg 88%
    05:00 +15°C° 0 mm 2 mps 742 mmHg 89%
    06:00 +17°C° 0 mm 2 mps 742 mmHg 83%
    07:00 +20°C° 0 mm 2 mps 742 mmHg 78%
    08:00 +22°C° 0 mm 3 mps 742 mmHg 73%
    09:00 +24°C° 0 mm 3 mps 742 mmHg 68%
    10:00 +26°C° 0 mm 4 mps 742 mmHg 63%
    11:00 +27°C° 0 mm 4 mps 742 mmHg 58%
    12:00 +27°C° 0 mm 5 mps 742 mmHg 56%
    13:00 +28°C° 0 mm 5 mps 741 mmHg 55%
    14:00 +28°C° 0 mm 5 mps 741 mmHg 54%
    15:00 +28°C° 0 mm 5 mps 741 mmHg 57%
    16:00 +27°C° 0 mm 5 mps 741 mmHg 59%
    17:00 +26°C° 0 mm 5 mps 741 mmHg 62%
    18:00 +23°C° 0 mm 5 mps 740 mmHg 66%
    19:00 +21°C° 0 mm 4 mps 740 mmHg 70%
    20:00 +19°C° 0 mm 4 mps 740 mmHg 74%
    21:00 +18°C° 0 mm 4 mps 740 mmHg 75%
    22:00 +17°C° 0 mm 4 mps 740 mmHg 77%
    23:00 +15°C° 0 mm 4 mps 741 mmHg 78%

    Tomorrow, 28 May, Tuesday

    Time Temperature Precipitation Wind Pressure Humidity
    00:00 +15°C° 0 mm 4 mps 740 mmHg 80%
    01:00 +14°C° 0 mm 3 mps 740 mmHg 82%
    02:00 +14°C° 0 mm 3 mps 740 mmHg 84%
    03:00 +14°C° 0.2 mm 3 mps 739 mmHg 85%
    04:00 +14°C° 0.2 mm 3 mps 739 mmHg 86%
    05:00 +13°C° 0.2 mm 3 mps 739 mmHg 87%
    06:00 +17°C° 0.1 mm 4 mps 739 mmHg 82%
    07:00 +19°C° 0.1 mm 4 mps 739 mmHg 77%
    08:00 +21°C° 0.1 mm 5 mps 739 mmHg 72%
    09:00 +23°C° 0 mm 5 mps 739 mmHg 65%
    10:00 +26°C° 0 mm 6 mps 739 mmHg 58%
    11:00 +28°C° 0 mm 6 mps 739 mmHg 51%
    12:00 +29°C° 0 mm 6 mps 738 mmHg 50%
    13:00 +29°C° 0 mm 6 mps 738 mmHg 48%
    14:00 +30°C° 0 mm 7 mps 737 mmHg 46%
    15:00 +30°C° 0 mm 6 mps 737 mmHg 50%
    16:00 +29°C° 0 mm 5 mps 736 mmHg 54%
    17:00 +29°C° 0 mm 5 mps 736 mmHg 57%
    18:00 +27°C° 0 mm 5 mps 736 mmHg 57%
    19:00 +25°C° 0 mm 5 mps 736 mmHg 57%
    20:00 +21°C° 0 mm 5 mps 736 mmHg 57%
    21:00 +20°C° 0 mm 4 mps 736 mmHg 58%
    22:00 +19°C° 0 mm 4 mps 736 mmHg 60%
    23:00 +18°C° 0 mm 4 mps 736 mmHg 62%

    Day after tomorrow, 29 May, Wednesday

    Time Temperature Precipitation Wind Pressure Humidity
    00:00 +18°C° 0 mm 4 mps 736 mmHg 64%
    01:00 +17°C° 0 mm 3 mps 736 mmHg 67%
    02:00 +17°C° 0 mm 3 mps 736 mmHg 69%
    03:00 +17°C° 0 mm 3 mps 737 mmHg 72%
    04:00 +17°C° 0 mm 3 mps 737 mmHg 76%
    05:00 +16°C° 0 mm 3 mps 737 mmHg 79%
    06:00 +18°C° 0 mm 2 mps 737 mmHg 75%
    07:00 +20°C° 0 mm 2 mps 737 mmHg 72%
    08:00 +23°C° 0 mm 2 mps 738 mmHg 69%
    09:00 +25°C° 0 mm 2 mps 738 mmHg 63%
    10:00 +26°C° 0 mm 1 mps 738 mmHg 58%
    11:00 +27°C° 0 mm 1 mps 738 mmHg 53%
    12:00 +28°C° 0 mm 1 mps 738 mmHg 52%
    13:00 +28°C° 0 mm 1 mps 738 mmHg 50%
    14:00 +29°C° 0 mm 1 mps 737 mmHg 49%
    15:00 +29°C° 0 mm 1 mps 737 mmHg 50%
    16:00 +29°C° 0 mm 1 mps 737 mmHg 52%
    17:00 +29°C° 0 mm 1 mps 737 mmHg 53%
    18:00 +27°C° 0 mm 1 mps 737 mmHg 57%
    19:00 +26°C° 0 mm 1 mps 738 mmHg 60%
    20:00 +24°C° 0 mm 1 mps 738 mmHg 64%
    21:00 +23°C° 0 mm 1 mps 738 mmHg 68%
    22:00 +22°C° 0 mm 1 mps 738 mmHg 73%
    23:00 +19°C° 0 mm 0 mps 739 mmHg 77%

    30 May, Thursday

    Time Temperature Precipitation Wind Pressure Humidity
    00:00 +20°C° 0 mm 1 mps 739 mmHg 80%
    01:00 +20°C° 0 mm 1 mps 739 mmHg 82%
    02:00 +19°C° 0 mm 1 mps 739 mmHg 84%
    03:00 +19°C° 0 mm 1 mps 739 mmHg 87%
    04:00 +18°C° 0 mm 1 mps 739 mmHg 89%
    05:00 +18°C° 0 mm 1 mps 739 mmHg 91%
    06:00 +18°C° 0 mm 2 mps 739 mmHg 86%
    07:00 +20°C° 0 mm 2 mps 739 mmHg 81%
    08:00 +21°C° 0 mm 2 mps 739 mmHg 76%
    09:00 +22°C° 0.5 mm 3 mps 739 mmHg 74%
    10:00 +24°C° 0.5 mm 3 mps 739 mmHg 72%
    11:00 +25°C° 0.5 mm 4 mps 739 mmHg 70%
    12:00 +26°C° 1.2 mm 3 mps 739 mmHg 68%
    13:00 +26°C° 1.2 mm 3 mps 739 mmHg 66%
    14:00 +27°C° 1.2 mm 3 mps 739 mmHg 64%
    15:00 +26°C° 0.5 mm 2 mps 739 mmHg 66%
    16:00 +26°C° 0.5 mm 2 mps 738 mmHg 68%
    17:00 +26°C° 0.5 mm 2 mps 738 mmHg 70%
    18:00 +24°C° 1 mm 2 mps 738 mmHg 75%
    19:00 +21°C° 1 mm 2 mps 738 mmHg 80%
    20:00 +20°C° 1 mm 2 mps 738 mmHg 85%
    21:00 +19°C° 0.2 mm 3 mps 739 mmHg 89%
    22:00 +18°C° 0.2 mm 3 mps 739 mmHg 92%
    23:00 +17°C° 0.2 mm 4 mps 739 mmHg 95%

    31 May, Friday

    Time Temperature Precipitation Wind Pressure Humidity
    00:00 +17°C° 0 mm 4 mps 739 mmHg 96%
    01:00 +15°C° 0 mm 4 mps 739 mmHg 96%
    02:00 +15°C° 0 mm 4 mps 739 mmHg 97%
    03:00 +15°C° 0 mm 4 mps 739 mmHg 96%
    04:00 +15°C° 0 mm 4 mps 738 mmHg 95%
    05:00 +15°C° 0 mm 5 mps 738 mmHg 94%
    06:00 +15°C° 0 mm 5 mps 738 mmHg 92%
    07:00 +15°C° 0 mm 5 mps 739 mmHg 90%
    08:00 +15°C° 0 mm 5 mps 739 mmHg 88%
    09:00 +17°C° 0 mm 5 mps 738 mmHg 83%
    10:00 +19°C° 0 mm 5 mps 738 mmHg 78%
    11:00 +21°C° 0 mm 5 mps 738 mmHg 74%
    12:00 +21°C° 0 mm 5 mps 738 mmHg 72%
    13:00 +22°C° 0 mm 5 mps 738 mmHg 70%
    14:00 +23°C° 0 mm 4 mps 737 mmHg 69%
    15:00 +22°C° 0 mm 4 mps 737 mmHg 69%
    16:00 +22°C° 0 mm 5 mps 737 mmHg 70%
    17:00 +22°C° 0 mm 5 mps 737 mmHg 71%
    18:00 +21°C° 0 mm 4 mps 737 mmHg 75%
    19:00 +19°C° 0 mm 4 mps 737 mmHg 79%
    20:00 +18°C° 0 mm 3 mps 737 mmHg 83%
    21:00 +17°C° 0.3 mm 4 mps 737 mmHg 85%
    22:00 +17°C° 0.3 mm 4 mps 737 mmHg 88%
    23:00 +15°C° 0.3 mm 4 mps 737 mmHg 91%

    1 June, Saturday

    Time Temperature Precipitation Wind Pressure Humidity
    00:00 +15°C° 0 mm 4 mps 737 mmHg 90%
    01:00 +14°C° 0 mm 4 mps 737 mmHg 90%
    02:00 +14°C° 0 mm 4 mps 737 mmHg 90%
    03:00 +14°C° 0 mm 4 mps 737 mmHg 90%
    04:00 +13°C° 0 mm 4 mps 737 mmHg 89%
    05:00 +13°C° 0 mm 4 mps 737 mmHg 89%
    06:00 +14°C° 0 mm 4 mps 737 mmHg 89%
    07:00 +15°C° 0 mm 5 mps 737 mmHg 88%
    08:00 +16°C° 0 mm 5 mps 737 mmHg 88%
    09:00 +15°C° 0 mm 6 mps 738 mmHg 87%
    10:00 +15°C° 0 mm 6 mps 738 mmHg 86%
    11:00 +15°C° 0 mm 7 mps 738 mmHg 85%
    12:00 +15°C° 0 mm 7 mps 738 mmHg 83%
    13:00 +15°C° 0 mm 7 mps 738 mmHg 80%
    14:00 +14°C° 0 mm 7 mps 738 mmHg 78%
    15:00 +14°C° 0.1 mm 7 mps 738 mmHg 80%
    16:00 +14°C° 0.1 mm 6 mps 738 mmHg 82%
    17:00 +13°C° 0.1 mm 6 mps 738 mmHg 84%
    18:00 +13°C° 0.1 mm 6 mps 739 mmHg 85%
    19:00 +11°C° 0.1 mm 6 mps 739 mmHg 85%
    20:00 +11°C° 0.1 mm 6 mps 740 mmHg 86%
    21:00 +12°C° 0.3 mm 5 mps 740 mmHg 88%
    22:00 +10°C° 0.3 mm 5 mps 741 mmHg 90%
    23:00 +11°C° 0.3 mm 4 mps 741 mmHg 92%
    Show more